Miscellaneous Local Product
Issued by NWS North Platte, NE

Home | Current Version | Previous Version | Text Only | Print | Product List | Glossary On
Versions: 1 2 3 4 5 6 7 8 9 10 11 12 13 14 15 16 17 18 19 20 21 22 23 24 25 26 27 28 29 30 31 32 33 34 35 36 37 38 39 40 41 42 43 44 45 46 47 48 49 50
000
AXUS43 KLBF 282110
MISLBF


WESTERN AND NORTH CENTRAL NEBRASKA HOURLY WEATHER ROUNDUP
NATIONAL WEATHER SERVICE NORTH PLATTE NE
400 PM CDT SUN JUN 28 2015

***STATIONS NOT REPORTING VARIABLES SUCH AS SKY/WEATHER OR
PRESSURE ARE PROVIDED BY THE NEBRASKA DEPARTMENT OF
ROADS...RAWS...AND APRS NETWORKS...AND ARE NOT UNDER
NATIONAL WEATHER SERVICE QUALITY CONTROL***

...OBSERVATIONS IN AND NEAR THE EASTERN PANHANDLE OF NEBRASKA...

CITY           SKY/WX    TMP DP  RH WIND       PRES   REMARKS
PINE RIDGE     SUNNY     86  56  35 VRB3      30.07F
CHADRON        SUNNY     90  56  31 VRB5      30.06F
ALLIANCE       SUNNY     89  51  27 N10       30.09F
SIDNEY         SUNNY     90  50  25 NE9       30.13F
WHITECLAY        N/A     87  59  38 W7          N/A
CRESCENT LAKE    N/A     91  47  21 N8G15       N/A
BIG SPRINGS      N/A     91  49  23 N6          N/A
$$

...OBSERVATIONS IN NORTH CENTRAL NEBRASKA...

CITY           SKY/WX    TMP DP  RH WIND       PRES   REMARKS
VALENTINE      MOSUNNY   81  54  39 N12G20    30.04F
THEDFORD       MOSUNNY   85  57  38 N12       30.05F
AINSWORTH      MOSUNNY   82  53  37 NW16G23   30.04S
O`NEILL        MOSUNNY   78  56  47 N10       29.99F
ORD            SUNNY     84  49  29 N14       29.97F
BROKEN BOW     SUNNY     83  55  38 N13       30.01F
VALENTINE NWR    N/A     83  55  38 N8G17       N/A
SPRINGVIEW       N/A     82  54  37 NW12G20     N/A
HALSEY           N/A     86  55  34 NW7G16      N/A
BREWSTER         N/A     87  55  33 N16         N/A
ROSE             N/A     90  68  48 NW16        N/A  HX  94
NEWPORT          N/A     83  51  32 S9          N/A
SARGENT          N/A     86  55  34 MISG        N/A
CHAMBERS         N/A     83  51  32 NW3         N/A
EWING            N/A     80  59  48 NW6G15      N/A
$$

...OBSERVATIONS IN SOUTHWEST NEBRASKA AND FAR NORTHEAST COLORADO...

CITY           SKY/WX    TMP DP  RH WIND       PRES   REMARKS
WRAY           FAIR      94  47  20 NE8       30.08F HX  91
HOLYOKE        FAIR      95  45  17 N12       30.09S HX  91
IMPERIAL       SUNNY     93  47  20 N13       30.05F
OGALLALA       SUNNY     90  47  22 N9        30.06F
NORTH PLATTE   SUNNY     91  54  28 N12       30.02F
MCCOOK         SUNNY     94  48  20 N14G20    30.01S HX  90
LEXINGTON      SUNNY     91  54  27 N12G22    30.00S
PAXTON           N/A     91  54  28 N6          N/A
GOTHENBURG       N/A     88  49  25 N8          N/A
CALLAWAY         N/A     85  61  44 N9          N/A
$$

...NORTH PLATTE AREA...

CITY           SKY/WX    TMP DP  RH WIND       PRES   REMARKS
AIRPORT        SUNNY     91  54  28 N12       30.02F
DOWNTOWN         N/A     88  55  32 N9G16       N/A
SANDRIDGE        N/A     90  56  31 N6          N/A
HILLCREST        N/A     88  53  29 N12G22      N/A
$$

...SOME WEATHER OBSERVATIONS FROM AROUND THE REGION...

CITY           SKY/WX    TMP DP  RH WIND       PRES   REMARKS
DENVER         MOSUNNY   92  45  19 VRB7      30.16F
LARAMIE        MOSUNNY   86  39  19 NE15G22   30.30S
CHEYENNE       PTSUNNY   79  52  38 SE8       30.24S
SCOTTSBLUFF    SUNNY     90  51  26 VRB5      30.09F
RAPID CITY     SUNNY     83  62  49 SE8       30.08F
PIERRE         MOSUNNY   80  57  45 N9        29.97F
WINNER         FAIR      86  46  24 N14       30.00F
SIOUX FALLS    MOSUNNY   84  56  38 N21       29.89S
OMAHA          MOSUNNY   87  57  35 NW22      29.83F
GRAND ISLAND   SUNNY     88  45  22 N18G32    29.96S
KANSAS CITY    CLOUDY    85  60  42 NW15G26   29.85S
WICHITA        MOSUNNY   98  58  26 W12       29.88F HX  97
HAYS           SUNNY     97  48  19 NE9G21    29.94S HX  93
LIBERAL        SUNNY     93  59  31 CALM      29.99F HX  92
GOODLAND       SUNNY     91  47  21 NE8       30.07F
$$



USA.gov is the U.S. government's official web portal to all federal, state and local government web resources and services.